Barcelona, Spain

9:49 AM CEST on October 17, 2018 (GMT +0200)
El Prat

Weather History for LEBL - February, 2018

Change the Weather History Date:

Monday, February 5, 2018

  Actual Average Record
Temperature  
Mean Temperature 46 °F -  
Max Temperature 50 °F 56 °F 64 °F (2014)
Min Temperature 43 °F 42 °F 30 °F (2012)
Degree Days  
Heating Degree Days 18    
Moisture  
Dew Point 45 °F    
Average Humidity 89    
Maximum Humidity 93    
Minimum Humidity 82    
Precipitation  
Precipitation 0.67 in 0.05 in - ()
Sea Level Pressure  
Sea Level Pressure 29.77 in    
Wind  
Wind Speed 10 mph ()    
Max Wind Speed 17 mph    
Max Gust Speed -    
Visibility 6.5 miles    
Events Rain , Thunderstorm    
Averages and records for this station are not official NWS values.
T = Trace of Precipitation, MM = Missing Value Source: Averaged Metar Reports

Daily Weather History Graph

Daily Weather History Graph

Search for Another Location

Airport or City:

Astronomy

Feb. 05, 2018 Rise Set
Actual Time 7:58 AM CET 6:13 PM CET
Civil Twilight 7:29 AM CET 6:41 PM CET
Nautical Twilight 6:57 AM CET 7:14 PM CET
Astronomical Twilight 6:24 AM CET 7:47 PM CET
Moon 11:57 PM CET (2/5) 10:58 AM CET (2/5)
Length of Visible Light 11h 11m
Length of Day
10h 14m
Waning Gibbous, 72% of the Moon is Illuminated
Feb 5
Waning Gibbous
Feb 7
Last Quarter
Feb 15
New
Feb 23
First Quarter
Mar 2
Full

Hourly Weather History & Observations

Time (CET) Temp. Windchill Dew Point Humidity Pressure Visibility Wind Dir Wind Speed Gust Speed Precip Events Conditions
12:00 AM 44 °F - 42 °F 88% 29.84 in 7 mi North 11.5 mph - - Rain Light Rain
12:00 AM 42.8 °F 36.6 °F 41.0 °F 93% 29.83 in 6.2 mi NW 11.5 mph - N/A Rain Light Rain
12:12 AM 42.8 °F 37.0 °F 41.0 °F 93% 29.83 in 5.6 mi NNW 10.4 mph - N/A Rain Rain Showers
12:30 AM 42.8 °F 38.0 °F 41.0 °F 93% 29.83 in 5.0 mi NW 8.1 mph - N/A Rain Rain Showers
1:00 AM 44 °F - 42 °F 88% 29.84 in 7 mi North 11.5 mph - - Rain Rain
1:00 AM 42.8 °F 37.5 °F 41.0 °F 93% 29.83 in 6.2 mi NW 9.2 mph - N/A Rain Light Rain
1:30 AM 42.8 °F 38.6 °F 41.0 °F 93% 29.83 in 6.2 mi NNW 6.9 mph - N/A Rain Light Rain
1:51 AM 42.8 °F 38.0 °F 41.0 °F 93% 29.80 in 6.2 mi NNW 8.1 mph - N/A Rain Rain Showers
2:00 AM 42.8 °F 38.6 °F 41.0 °F 93% 29.80 in 4.3 mi NNW 6.9 mph - N/A Rain Rain Showers
2:30 AM 44.6 °F 40.2 °F 42.8 °F 93% 29.80 in 6.2 mi NNW 8.1 mph - N/A Rain Light Rain
3:00 AM 44 °F - 42 °F 89% 29.81 in 4 mi North 9.2 mph - - Rain Rain
3:00 AM 42.8 °F 38.6 °F 41.0 °F 93% 29.80 in 5.0 mi NNW 6.9 mph - N/A Rain Rain Showers
3:12 AM 44.6 °F 40.7 °F 42.8 °F 93% 29.80 in 3.7 mi North 6.9 mph - N/A Rain Rain Showers
3:30 AM 44.6 °F 40.7 °F 42.8 °F 93% 29.80 in 1.9 mi NE 6.9 mph - N/A Rain Rain Showers
3:50 AM 48.2 °F - 44.6 °F 87% 29.77 in 6.2 mi East 13.8 mph - N/A Rain Light Rain
4:00 AM 48.2 °F - 44.6 °F 87% 29.77 in 4.3 mi East 13.8 mph - N/A Rain Rain Showers
4:13 AM 48.2 °F - 46.4 °F 93% 29.77 in 4.3 mi East 11.5 mph - N/A Rain Rain Showers
4:23 AM 48.2 °F - 44.6 °F 87% 29.77 in 2.5 mi East 16.1 mph - N/A Rain Heavy Rain Showers
4:30 AM 48.2 °F - 46.4 °F 93% 29.77 in 4.3 mi East 15.0 mph - N/A Rain Rain Showers
4:49 AM 50.0 °F - 46.4 °F 87% 29.74 in 6.2 mi ESE 15.0 mph - N/A   Overcast
5:00 AM 50 °F - 47 °F 85% 29.77 in 14 mi ESE 13.8 mph - - Rain Drizzle
5:00 AM 48.2 °F - 46.4 °F 93% 29.77 in 6.2 mi ESE 13.8 mph - N/A Thunderstorm Overcast
5:30 AM 48.2 °F - 44.6 °F 87% 29.77 in 6.2 mi East 12.7 mph - N/A Rain Rain
6:00 AM 49 °F - 46 °F 87% 29.77 in 12 mi East 13.8 mph - - Rain Light Rain
6:00 AM 48.2 °F - 46.4 °F 93% 29.77 in 6.2 mi East 13.8 mph - N/A   Mostly Cloudy
6:30 AM 48.2 °F - 46.4 °F 93% 29.77 in 6.2 mi East 12.7 mph - N/A Rain Light Rain
7:00 AM 50 °F - 46 °F 82% 29.77 in 4 mi East 17.3 mph - - Rain Rain
7:00 AM 48.2 °F - 46.4 °F 93% 29.74 in 3.7 mi East 12.7 mph - N/A Rain Light Rain
7:30 AM 48.2 °F - 46.4 °F 93% 29.74 in 5.0 mi East 11.5 mph - N/A Rain Light Rain
8:00 AM 48.2 °F - 46.4 °F 93% 29.74 in 6.2 mi ENE 10.4 mph - N/A   Mostly Cloudy
8:30 AM 50.0 °F - 46.4 °F 87% 29.77 in 6.2 mi East 10.4 mph - N/A   Mostly Cloudy
9:00 AM 50 °F - 47 °F 84% 29.78 in 15 mi East 13.8 mph - - Rain Light Rain
9:00 AM 50.0 °F - 46.4 °F 87% 29.77 in 6.2 mi ENE 11.5 mph - N/A Thunderstorm Thunderstorm
9:30 AM 48.2 °F - 42.8 °F 82% 29.77 in 6.2 mi NNE 10.4 mph - N/A   Mostly Cloudy
9:43 AM 46.4 °F 42.4 °F 44.6 °F 93% 29.77 in 3.1 mi North 8.1 mph - N/A Rain Heavy Rain Showers
9:47 AM 46.4 °F 42.4 °F 44.6 °F 93% 29.77 in 2.5 mi NW 8.1 mph - N/A Rain , Thunderstorm Heavy Rain Showers
10:00 AM 47 °F - 44 °F 86% 29.80 in 1 mi NW 6.9 mph - - Rain Light Rain Showers
10:00 AM 46.4 °F 40.1 °F 44.6 °F 93% 29.80 in 0.9 mi West 15.0 mph - N/A Rain Heavy Rain Showers
10:06 AM 46.4 °F 43.5 °F 44.6 °F 93% 29.77 in 4.3 mi NW 5.8 mph - N/A Rain Heavy Rain Showers
10:11 AM 46.4 °F 44.3 °F 44.6 °F 93% 29.77 in 4.3 mi East 4.6 mph - N/A Rain Rain Showers
10:30 AM 46.4 °F 43.5 °F 44.6 °F 93% 29.77 in 4.3 mi NE 5.8 mph - N/A Rain Light Rain Showers
11:00 AM 47 °F - 45 °F 90% 29.79 in 16 mi North 9.2 mph - - Rain Light Rain
11:00 AM 46.4 °F 41.9 °F 44.6 °F 93% 29.77 in 5.0 mi NE 9.2 mph - N/A Rain Light Rain
11:30 AM 48.2 °F - 46.4 °F 93% 29.77 in 3.7 mi NE 6.9 mph - N/A Rain Rain
12:00 PM 50 °F - 47 °F 85% 29.78 in 19 mi NE 9.2 mph - - Rain Light Drizzle
12:00 PM 50.0 °F - 46.4 °F 87% 29.77 in 6.2 mi NNE 6.9 mph - N/A   Scattered Clouds
12:30 PM 48.2 °F - 46.4 °F 93% 29.77 in 6.2 mi NNE 5.8 mph - N/A   Scattered Clouds
1:00 PM 50 °F - 47 °F 85% 29.77 in 12 mi North 6.9 mph - -   Partly Cloudy
1:00 PM 48.2 °F - 46.4 °F 93% 29.77 in 6.2 mi NE 10.4 mph - N/A   Scattered Clouds
1:05 PM 48.2 °F - 46.4 °F 93% 29.74 in 5.0 mi NNE 8.1 mph - N/A Rain Rain Showers
1:16 PM 48.2 °F - 46.4 °F 93% 29.77 in 5.6 mi West 15.0 mph - N/A Rain Light Rain
1:30 PM 48.2 °F - 44.6 °F 87% 29.77 in 6.2 mi WNW 6.9 mph - N/A Rain Light Rain
2:00 PM 49 °F - 46 °F 86% 29.77 in 19 mi North 5.8 mph - -   Clear
2:00 PM 48.2 °F - 44.6 °F 87% 29.77 in 6.2 mi NNW 5.8 mph - N/A   Scattered Clouds
2:30 PM 48.2 °F - 44.6 °F 87% 29.74 in 6.2 mi NNW 9.2 mph - N/A Rain Light Rain
3:00 PM 49 °F - 46 °F 83% 29.76 in 19 mi North 12.7 mph - -   Clear
3:00 PM 48.2 °F - 44.6 °F 87% 29.74 in 6.2 mi NW 11.5 mph - N/A   Mostly Cloudy
3:30 PM 48.2 °F - 44.6 °F 87% 29.74 in 6.2 mi NNW 15.0 mph - N/A   Scattered Clouds
4:00 PM 49 °F - 46 °F 83% 29.75 in 12 mi North 13.8 mph - -   Partly Cloudy
4:00 PM 48.2 °F - 44.6 °F 87% 29.74 in 6.2 mi NNW 12.7 mph - N/A   Scattered Clouds
4:30 PM 48.2 °F - 44.6 °F 87% 29.74 in 4.3 mi NW 8.1 mph - N/A Rain Light Rain
4:40 PM 48.2 °F - 44.6 °F 87% 29.74 in 3.7 mi NW 4.6 mph - N/A Rain Rain
5:00 PM 48 °F - 46 °F 89% 29.75 in 6 mi North 13.8 mph - - Rain Heavy Rain
5:00 PM 48.2 °F - 44.6 °F 87% 29.74 in 3.7 mi NNW 10.4 mph - N/A Rain Rain
5:30 PM 48.2 °F - 46.4 °F 93% 29.74 in 6.2 mi North 9.2 mph - N/A Rain Light Rain
6:00 PM 48 °F - 46 °F 90% 29.76 in 14 mi North 9.2 mph - -   Clear
6:00 PM 48.2 °F - 46.4 °F 93% 29.74 in 6.2 mi North 6.9 mph - N/A   Scattered Clouds
6:30 PM 48.2 °F - 46.4 °F 93% 29.74 in 6.2 mi NNE 6.9 mph - N/A   Mostly Cloudy
7:00 PM 50 °F - 47 °F 85% 29.77 in 13 mi NE 11.5 mph - -   Partly Cloudy
7:00 PM 48.2 °F - 46.4 °F 93% 29.74 in 6.2 mi NE 10.4 mph - N/A   Mostly Cloudy
7:30 PM 50.0 °F - 46.4 °F 87% 29.77 in 5.6 mi East 8.1 mph - N/A Rain Light Rain
8:00 PM 50.0 °F - 46.4 °F 87% 29.77 in 5.6 mi ENE 10.4 mph - N/A Rain Rain
8:30 PM 50.0 °F - 44.6 °F 82% 29.77 in 6.2 mi ENE 10.4 mph - N/A   Scattered Clouds
9:00 PM 50 °F - 47 °F 84% 29.78 in 5 mi ENE 10.4 mph - - Rain Rain
9:00 PM 50.0 °F - 46.4 °F 87% 29.77 in 6.2 mi NE 9.2 mph - N/A Rain Rain
9:30 PM 50.0 °F - 46.4 °F 87% 29.77 in 6.2 mi East 10.4 mph - N/A Rain Light Rain
10:00 PM 50.0 °F - 46.4 °F 87% 29.77 in 6.2 mi NE 5.8 mph - N/A Rain Light Rain
10:30 PM 48.2 °F - 46.4 °F 93% 29.77 in 5.0 mi NNE 8.1 mph - N/A Rain Rain
11:00 PM 49 °F - 47 °F 88% 29.79 in 5 mi West 4.6 mph - - Rain Rain
11:00 PM 48.2 °F - 46.4 °F 93% 29.77 in 5.6 mi SSE 13.8 mph - N/A Rain Light Rain
11:30 PM 48.2 °F - 46.4 °F 93% 29.77 in 5.0 mi SSW 10.4 mph - N/A Rain Rain